Showing default

KESTREL-0A, 64624

Orbit data source: Space-Track

KESTREL-0A, 64624 is a payload satellite owned by HawkEye 360 (US) in SSO that was launched on Thu, 26 Jun 2025 UTC via an ELECTRON launch vehicle from the Rocket Lab Launch Complex (RLLC). Payload-class satellites include a variety of spacecraft equipped with specific instruments for various scientific and technological missions. These include communications satellites like Starlink; space stations such as the ISS; scientific satellites like the Hubble; Earth observation satellites from companies like Planet Labs, Umbra, and HawkEye 360; GPS; miniature CubeSats for education and research; and military/defense satellites.

Loading next visibility...
Identifier
64624, 2025-138D
Orbit
SSO
Country
Flag of USUS
Related business
Manufacturer
HawkEye 360, Inc.
Mission
Operational Commercial Sigint
Bus & Motor
CUBESAT 8U, Unknown motor
Mass
12 kg wet, 12 kg dry
Launch date (UTC)
2025-06-26 (1 year ago)
Launch vehicle
ELECTRON
Launch site
Rocket Lab Launch Complex (RLLC)
Object type
Payload
Rocket body
Debris
Shape & HBR
Box + 2 Pan, 1.0 m
Radar Cross Section
0.124 m², Medium (>0.1 m² and < 1m²)

Expand to show TLE details & history
Last TLE update: 22 hours ago

TLE from 22 hours ago
0 KESTREL-0A
1 64624U 25138D   26170.92852675  .00007348  00000-0  31230-3 0  9995
2 64624  97.4407 175.0550 0015103 113.1121 247.1709 15.23235566 54364
Epoch: 2026-06-19T22:17Z
TLE epoch observation values (Epoch: 2026-06-19T22:17:04.711Z)
Latitude
-0.00004°
Longitude
-67.36509°
Altitude
503.225 km
Speed
7.61 km/s
True Right ascension
11h 40m 13s
True Declination
0° 00' 00"
Sunlit
Object was in daylight at epoch
Visualization orbit readout
Latitude
Unknown
Longitude
Unknown
Altitude
Unknown
Speed
Unknown
Apparent Right ascension
Unknown
Apparent Declination
Unknown
Sunlit
N/A
Visualization observer readout
Local Sidereal Time
07:20:39
Azimuth
Unknown
Elevation
Unknown
Doppler factor
Unknown
Orbital elements
Apogee altitude
503.429 km
Perigee altitude
482.674 km
Semi-major axis
6,871.189 km
Eccentricity
0.00151
Inclination
97.4407°
RAAN
175.055°
Arg. of periapsis
113.1121°
True anomaly
247.01151°
Mean anomaly
247.1709°
Eccentric anomaly
247.09119°
Mean motion
3.81062 °/min
Orbital period
94.47 mins
BSTAR
0.0003123
Loading maneuver chart data...
Computing Atmospheric mass density...
Loading historical data...
Loading historical data...
Loading historical data...
Loading historical data...
Loading historical data...
Loading historical data...
Loading historical data...

Documentation

Showing up to 5 results
|